Regional Weather Roundup
Issued by NWS

Home | Current Version | Previous Version | Text Only | Print | Product List | Glossary On
Versions: 1 2 3 4 5 6 7 8 9 10 11 12 13 14 15 16 17 18 19 20 21 22 23 24 25 26 27 28 29 30 31 32 33 34 35 36 37 38 39 40 41 42 43 44 45 46 47 48 49 50
000
ASUS46 KSEW 311010
RWRWA

WASHINGTON REGIONAL WEATHER ROUNDUP
NATIONAL WEATHER SERVICE SEATTLE WA
300 AM PDT FRI JUL 31 2015

NOTE:"FAIR" INDICATES FEW OR NO CLOUDS BELOW 12,000 FEET WITH NO
SIGNIFICANT WEATHER AND/OR OBSTRUCTIONS TO VISIBILITY.

WAZ505-507>509-311100-
SEATTLE, TACOMA, EVERETT, AND VICINITY

CITY           SKY/WX    TMP DP  RH WIND       PRES   REMARKS
EVERETT        CLEAR     69  42  37 NE5       30.08R
BOEING FIELD   CLEAR     71  52  50 CALM      30.05R
RENTON         CLEAR     64  55  72 CALM      30.04S
SEATAC AIRPORT CLEAR     72  48  42 NE8       30.06S
JBLM-MCCHORD   CLEAR     57  48  73 S1        30.05R
PUYALLUP       FAIR      57  52  82 CALM      30.06S
BREMERTON      CLEAR     57  45  62 CALM      30.09S
JBLM-FT LEWIS  CLEAR     60  42  51 SE3       30.05R
TACOMA NARROWS CLEAR     65  47  52 CALM      30.06R
$$

WAZ001-503-506-510-514-515-311100-
NORTH INTERIOR

CITY           SKY/WX    TMP DP  RH WIND       PRES   REMARKS
BELLINGHAM     CLEAR     58  55  90 CALM      30.04S
FRIDAY HARBOR  CLEAR     52  49  89 CALM      30.05S
EASTSOUND      CLEAR     57  52  82 S3        30.03S
PORT ANGELES   CLEAR     58  50  75 CALM      30.06R
PORT TOWNSEND  FAIR      54  50  87 CALM      30.05S
NAS WHIDBEY    CLEAR     57  49  74 SE6       30.09R
ARLINGTON      CLEAR     57  46  67 CALM      30.08S
BURLINGTON     CLEAR     59  50  72 CALM      30.05S
$$

WAZ020-022-039-040-504-511-512-311100-
SOUTHWEST INTERIOR

CITY           SKY/WX    TMP DP  RH WIND       PRES   REMARKS
SHELTON        CLEAR     62  51  67 NW3       30.04S
OLYMPIA        CLEAR     55  48  77 CALM      30.05S
CHEHALIS       FAIR      57  54  88 CALM      30.06R
KELSO          CLEAR     63  48  59 N5        30.07S
VANCOUVER      CLEAR     69  49  48 CALM      30.02R
SCAPPOOSE, OR  CLEAR     66  49  54 CALM      30.01R
PORTLAND, OR   CLEAR     71  60  68 E3        30.02R
$$

WAZ021-516-517-311100-
WASHINGTON COAST

CITY           SKY/WX    TMP DP  RH WIND       PRES   REMARKS
FORKS          CLEAR     52  51  97 CALM      30.08S
HOQUIAM        CLEAR     59  56  89 S6        30.07R
ASTORIA, OR    CLEAR     54  52  93 CALM      30.06F
$$

WAZ019-023-024-040-518-519-311100-
CASCADE MOUNTAINS AND COLUMBIA GORGE

CITY           SKY/WX    TMP DP  RH WIND       PRES   REMARKS
TROUTDALE, OR  CLEAR     66  55  67 E3        30.01R
THE DALLES, OR CLEAR     74  47  38 SE6       29.98R
$$

WAZ026-027-041>044-520-521-311100-
EAST SLOPES

CITY           SKY/WX    TMP DP  RH WIND       PRES   REMARKS
OMAK           CLEAR     65  34  31 W7        30.04R
WENATCHEE      CLEAR     78  36  21 NW12      30.03S
ELLENSBURG     CLEAR     62  42  47 E5        30.07S
YAKIMA         CLEAR     63  46  54 W7        30.03S
$$

WAZ028-034-035-311100-
COLUMBIA BASIN

CITY           SKY/WX    TMP DP  RH WIND       PRES   REMARKS
EPHRATA        CLEAR     67  40  37 NE5       30.01S
MOSES LAKE     CLEAR     64  38  38 N3        30.02S
PASCO          PTCLDY    61  54  77 NE3       29.98R
HERMISTON, OR  MOCLDY    65  41  41 S6        29.98R
$$

WAZ036>038-311100-
NORTHEAST WASHINGTON

CITY           SKY/WX    TMP DP  RH WIND       PRES   REMARKS
SPOKANE GEIGER PTCLDY    68  33  27 NE5       30.10R
SPOKANE FELTS  CLEAR     62  42  47 N5        30.09S
FAIRCHILD AFB  CLEAR     62  36  38 E1        30.10S
COEURDALENE,ID CLEAR     57  43  58 E6        30.11S
DEER PARK      CLEAR     51  33  50 CALM      30.10R
$$

WAZ029>033-311100-
SOUTHEAST WASHINGTON

CITY           SKY/WX    TMP DP  RH WIND       PRES   REMARKS
PULLMAN        PTCLDY    57  31  37 CALM      30.13S
LEWISTON, ID   PTCLDY    69  34  27 SE5       30.06R
WALLA WALLA    MOCLDY    76  31  19 E7        30.00S
PENDLETON, OR  CLOUDY    67  31  26 E7        30.02S
$$


USA.gov is the U.S. government's official web portal to all federal, state and local government web resources and services.